Weather History for Benton Harbor, MI

Change the Weather History Date:

Sunday, November 3, 2013

  Actual Average Record
Temperature  
Mean Temperature 41 °F -  
Max Temperature 48 °F 54 °F 76 °F (1961)
Min Temperature 34 °F 36 °F 15 °F (1951)
Degree Days  
Heating Degree Days 24    
Moisture  
Dew Point 36 °F    
Average Humidity 83    
Maximum Humidity 100    
Minimum Humidity 61    
Precipitation  
Precipitation 0.00 in - - ()
Sea Level Pressure  
Sea Level Pressure 30.27 in    
Wind  
Wind Speed 4 mph (ESE)    
Max Wind Speed 13 mph    
Max Gust Speed 18 mph    
Visibility 9 miles    
Events      
Averages and records for this station are not official NWS values.
T = Trace of Precipitation, MM = Missing Value Source: NWS Daily Summary

Daily Weather History Graph

Daily Weather History Graph

Search for Another Location

Airport:

Trip Planner

Search our weather history database for the weather conditions in past years. The results will help you decide how hot, cold, wet, or windy it might be!

Date:

Astronomy

Nov. 03, 2013 Rise Set
Actual Time 7:21 AM EST 5:36 PM EST
Civil Twilight 6:52 AM EST 6:05 PM EST
Nautical Twilight 6:18 AM EST 6:38 PM EST
Astronomical Twilight 5:46 AM EST 7:11 PM EST
Moon 7:24 AM EST (11/3) 5:50 PM EST (11/3)
Length of Visible Light 11h 13m
Length of Day
10h 15m
Waxing Crescent, 0% of the Moon is Illuminated
Nov 3
Waxing Crescent
Nov 10
First Quarter
Nov 17
Full
Nov 25
Last Quarter
Dec 2
New

Hourly Weather History & Observations

Time (EST) Temp. Windchill Dew Point Humidity Pressure Visibility Wind Dir Wind Speed Gust Speed Precip Events Conditions
12:53 AM 39.0 °F - 37.9 °F 96% 30.12 in 10.0 mi Calm Calm - N/A   Mostly Cloudy
1:53 AM 39.0 °F 36.8 °F 37.9 °F 96% 30.14 in 10.0 mi East 3.5 mph - N/A   Overcast
1:53 AM 37.0 °F - 37.0 °F 100% 30.16 in 10.0 mi Calm Calm - N/A   Overcast
2:53 AM 36.0 °F - 36.0 °F 100% 30.18 in 8.0 mi Calm Calm - N/A   Clear
3:13 AM 35.6 °F - 35.6 °F 100% 30.17 in 1.5 mi Calm Calm - N/A   Scattered Clouds
3:35 AM 35.6 °F - 35.6 °F 100% 30.18 in 3.0 mi Calm Calm - N/A   Overcast
3:53 AM 34.0 °F - 34.0 °F 100% 30.20 in 4.0 mi Calm Calm - N/A   Mostly Cloudy
4:53 AM 35.1 °F - 35.1 °F 100% 30.23 in 9.0 mi Calm Calm - N/A   Overcast
5:53 AM 37.0 °F 32.4 °F 37.0 °F 100% 30.25 in 9.0 mi East 5.8 mph - N/A   Overcast
6:53 AM 37.9 °F 32.1 °F 37.0 °F 97% 30.26 in 10.0 mi East 8.1 mph - N/A   Overcast
7:53 AM 36.0 °F 31.1 °F 35.1 °F 97% 30.29 in 10.0 mi East 5.8 mph - N/A   Clear
8:53 AM 39.0 °F 33.4 °F 36.0 °F 89% 30.32 in 10.0 mi SE 8.1 mph - N/A   Clear
9:53 AM 43.0 °F 37.7 °F 36.0 °F 76% 30.33 in 10.0 mi ESE 9.2 mph - N/A   Clear
10:53 AM 45.0 °F 39.7 °F 36.0 °F 71% 30.34 in 10.0 mi ESE 10.4 mph - N/A   Clear
11:53 AM 46.9 °F - 37.0 °F 68% 30.33 in 10.0 mi ESE 9.2 mph - N/A   Clear
12:30 PM 46.4 °F 41.9 °F 37.4 °F 71% 30.30 in 10.0 mi SE 9.2 mph 18.4 mph N/A   Mostly Cloudy
12:37 PM 46.4 °F 41.9 °F 37.4 °F 71% 30.30 in 10.0 mi SE 9.2 mph - N/A   Scattered Clouds
12:53 PM 46.9 °F - 35.1 °F 63% 30.31 in 10.0 mi SSE 9.2 mph - N/A   Scattered Clouds
1:53 PM 46.9 °F - 36.0 °F 66% 30.31 in 10.0 mi SE 6.9 mph - N/A   Mostly Cloudy
2:53 PM 48.0 °F - 35.1 °F 61% 30.30 in 10.0 mi SE 8.1 mph - N/A   Overcast
3:53 PM 48.0 °F - 36.0 °F 63% 30.31 in 10.0 mi ESE 9.2 mph - N/A   Overcast
4:53 PM 46.9 °F - 36.0 °F 66% 30.30 in 10.0 mi ESE 11.5 mph - N/A   Overcast
5:53 PM 46.0 °F 41.9 °F 36.0 °F 68% 30.31 in 10.0 mi ESE 8.1 mph - N/A   Overcast
6:53 PM 42.1 °F 39.2 °F 35.1 °F 76% 30.32 in 10.0 mi ESE 4.6 mph - N/A   Scattered Clouds
7:53 PM 39.9 °F 36.7 °F 35.1 °F 83% 30.32 in 10.0 mi ESE 4.6 mph - N/A   Clear
8:53 PM 39.9 °F 35.8 °F 35.1 °F 83% 30.32 in 10.0 mi ESE 5.8 mph - N/A   Clear
9:53 PM 39.9 °F 35.1 °F 36.0 °F 86% 30.34 in 10.0 mi ESE 6.9 mph - N/A   Clear
10:53 PM 39.9 °F 32.5 °F 35.1 °F 83% 30.34 in 10.0 mi ESE 12.7 mph - N/A   Clear